Location: ????????
(60.5616°N, 46.8254°E)
Time: 18:56:30
(UTC+00:00)

Cosmos 2369 Rocket - Pass Details

Date: 18 February 2020
Orbit: 827 x 854 km, 71.0° (Epoch: 29 March)

Event Time Altitude Azimuth Distance (km) Brightness Sun altitude
Exits shadow 23:14:51 38° 58° (ENE) 1,288 3.4 -35.6°
Drops below altitude 10° 23:19:09 10° 100° (E) 2,491 4.9 -35.3°
Sets 23:21:45 0° 107° (ESE) 3,426 5.6 -35.1°
